Вернуться в каталог

SATURN

АктивенНаукаSSO
NORAD 57174·PAYLOAD·🇷🇺 Russia
Это название спутника еще не подтверждено официальными источниками.

Запущен Jun 27, 2023 с Vostochny Cosmodrome

Loading…

Ближайшие Пролёты (ближайшие 24 часа)

TLE

СвежийSource: Space-Track

Эпоха: Sep 14, 2026, 14:22 UTC

1 57174U 23091J   26257.59918380  .00002432  00000-0  13572-3 0  9996
2 57174  97.4960 309.4089 0012701 191.9729 168.1203 15.14437949177163

Отслеживайте SATURN в реальном времени с AllMySat

Download on the App Store